Date,TemperatureHighF,TemperatureAvgF,TemperatureLowF,DewpointHighF,DewpointAvgF,DewpointLowF,HumidityHigh,HumidityAvg,HumidityLow,PressureMaxIn,PressureMinIn,WindSpeedMaxMPH,WindSpeedAvgMPH,GustSpeedMaxMPH,PrecipitationSumIn
2013-3-1,75.0,64.3,46.0,57.8,52.7,46.0,100,68,43,30.31,30.21,10,3,10,0.00
2013-3-2,72.0,60.8,50.0,57.6,52.5,48.1,96,76,52,30.21,30.04,10,0,37,0.00
2013-3-3,70.0,59.6,53.0,54.0,52.0,47.9,95,78,46,30.04,30.00,9,2,37,0.00
2013-3-11,73.0,58.1,41.0,51.5,47.3,40.2,98,71,35,30.16,30.07,9,0,16,0.00
2013-3-12,76.0,57.8,46.0,57.3,50.9,45.5,100,81,44,30.10,30.05,11,2,16,0.00
2013-3-13,80.0,61.0,46.0,56.9,52.1,45.2,100,76,43,30.11,30.06,6,0,24,0.00
2013-3-14,72.0,59.7,50.0,57.2,51.2,46.0,96,75,41,30.11,30.04,10,2,22,0.00
2013-3-15,76.0,59.7,49.0,54.5,50.5,44.4,94,73,44,30.07,30.00,13,2,37,0.00
2013-3-16,74.0,58.6,45.0,54.4,48.1,44.2,99,72,40,30.05,29.98,21,4,27,0.00
2013-3-17,73.0,57.9,49.0,47.4,44.2,40.3,85,63,33,30.08,30.01,12,2,20,0.00
2013-3-18,67.0,55.7,45.0,52.6,47.4,42.2,94,75,52,30.05,29.97,13,1,27,0.00
2013-3-19,66.0,55.9,47.0,50.9,47.1,41.4,93,74,50,30.07,29.99,9,1,14,0.09
2013-3-20,62.0,55.5,51.0,57.8,53.1,46.3,100,92,82,30.05,29.96,7,0,15,0.13
2013-3-21,67.0,54.4,43.0,49.3,45.8,41.4,96,75,47,30.04,29.98,11,2,17,0.00
2013-3-22,69.0,55.0,45.0,44.4,40.3,32.7,85,61,27,30.03,29.96,14,3,29,0.01
2013-3-23,72.0,57.1,44.0,46.4,40.0,30.6,82,56,29,30.05,29.99,7,0,38,0.00
2013-3-24,72.0,56.0,45.0,51.6,46.1,42.5,94,72,37,30.03,29.97,7,1,16,0.00
2013-3-25,61.0,52.3,43.0,49.2,46.2,40.8,97,81,59,29.98,29.92,12,3,18,0.00
2013-3-26,68.0,54.3,46.0,51.8,47.5,44.4,96,79,50,29.96,29.90,11,2,18,0.00
2013-3-27,65.0,56.6,49.0,55.7,51.5,47.1,93,84,63,30.02,29.89,8,0,36,0.00
2013-3-28,69.0,59.6,53.0,57.4,53.8,51.0,97,82,57,30.06,29.98,5,0,11,0.00
2013-3-29,78.0,61.3,50.0,58.0,53.6,50.0,100,80,40,30.05,29.99,5,0,15,0.00
2013-3-30,70.0,60.7,55.0,57.6,54.3,49.3,96,81,50,30.04,29.97,10,0,24,0.06
2013-3-31,66.0,59.4,54.0,59.4,55.8,52.6,100,88,67,30.05,29.99,11,1,20,0.14